Tracking 19570 objects as of 22-Feb-2019
HD Live streaming from Space Station
objects crossing your sky now

FENGYUN 1C DEB

Track FENGYUN 1C DEB now!
10-day predictions


NORAD ID: 31226
Int'l Code: 1999-025BLG
Perigee: 729.2 km
Apogee: 914.9 km
Inclination: 98.6 °
Period: 101.2 minutes
Semi major axis: 7193 km
RCS: 0.0061 m2 (small)
Launch date: May 10, 1999
Source: People's Republic of China (PRC)
Launch site: Taiyaun Space Center, China (TSC)

Note: This is SATELLITE DEBRIS
aabbcc
Your satellite tracking list
Your tracking list is empty




NASA's NSSDC Master Catalog

Two Line Element Set (TLE):
1 31226U 99025BLG 19051.37518120  .00000086  00000-0  53140-4 0  9993
2 31226  98.5904 115.8849 0129051 267.7172  90.9226 14.23086409618131
Source of the keplerian elements: AFSPC